Погода в Ирмино

Украина / Луганская область     48°35′44″N   38°35′11″E
темп.,
°C
ветер,
м/с
пор.,
м/с
влажн.,
%
обл.,
%
осадки,
мм/ч
давл.,
гПа
погр.,
м
12 мая, ср
ср1200:00+7вюв6119499 0.1 1015574
03:00+6вюв71294100 0.7 1016804
06:00+6вюв81293100 0.1 1017802
09:00+8вюв81288100 0.4 10171062
12:00+7в6109399 0.9 1017690
15:00+12ююв696963 1.1 10161056
18:00+9ююв3894100 2.5 1016382
21:00+9юв41193100 2.8 1015260
13 мая, чт
чт1300:00+9ю2597100 5.1 1015174
03:00+9вюв2296100 6.3 101519
06:00+9в249550 0.3 1014130
09:00+16ююв467221 0.3 1014619
12:00+20ю46575 0.0 10141413
15:00+22ю455017 0.0 10131738
18:00+20юв3666100 0.0 1013195
21:00+16юв3478100 0.0 101454
14 мая, пт
пт1400:00+14вюв338874 0.0 101333
03:00+13в358940 0.0 101373
06:00+14в311875 0.0 1013250
09:00+20юв6963100 0.0 1012543
12:00+24ююв5752100 0.0 1012944
15:00+26юв685057 0.0 1011952
18:00+25ююв58635 0.0 1010384
21:00+19юв36835 0.0 101197
15 мая, сб
сб1500:00+18ююв238483 0.0 101038
03:00+17юз229016 0.8 101024
06:00+16юз2386100 2.1 101270
09:00+20юз2365100 2.1 1012371
12:00+23зюз2252100 0.0 1013981
15:00+25зюз1344100 0.0 10121751
18:00+25зсз125436 0.0 1011127
21:00+18сз226834 0.0 101215
16 мая, вс
вс1600:00+16с227199 0.0 101211
03:00+15с2279100 0.0 101213
06:00+15св258438 0.0 1012119
09:00+21всв467280 0.0 1011463
12:00+25всв5660100 0.0 10101080
15:00+26в675180 0.0 10091427
18:00+24в6115555 0.0 1008558
21:00+19всв4147097 0.0 1007269